Погода в Распасеевке

Украина / Луганская область     49°49′55″N   38°23′21″E
темп.,
°C
ветер,
м/с
пор.,
м/с
влажн.,
%
обл.,
%
осадки,
мм/ч
давл.,
гПа
погр.,
м
21 января, пт
пт2123:00−9ю51384100 0.0 1015269
02:00−7ююв61595100 0.1 1012418
05:00−6ююв81895100 0.6 1008519
08:00−3ю81796100 2.5 1007668
11:000юз71191100 0.7 1006692
14:00−1юз71195100 0.9 1007876
17:00−5юз511905 0.3 1008237
20:00−9ююз499512 0.3 1010120
22 января, сб
сб2223:00−10ююз499615 0.0 1010136
02:00−11ююз4109769 0.0 1010135
05:00−11ююз399872 0.0 1010131
08:00−11ююз399774 0.1 1012149
11:00−7ююз4109569 0.0 1012312
14:00−5ююз4994100 0.0 1013381
17:00−8ююз3698100 0.1 1015110
20:00−5ю3694100 0.1 1016234
23 января, вс
вс2323:00−5ю2494100 0.0 1017102
02:00−9юв2297100 0.0 101810
05:00−10юв2297100 0.0 101931
08:00−8св2395100 0.0 102054
11:00−6св4793100 0.0 1021227
14:00−5ссв51094100 0.0 1022399
17:00−5ссв51293100 0.0 1022467
20:00−5ссв71495100 0.6 1021537
24 января, пн
пн2423:00−4ссв71496100 1.6 1021485
02:00−3всв61296100 2.6 1021492
05:00−5всв61295100 0.4 1022426
08:00−6всв5109595 0.6 1024352
11:00−6всв599591 0.1 1025362
14:00−5св5994100 0.2 1025363
17:00−7св51095100 0.1 1026245
20:00−6всв51096100 0.3 1026310
25 января, вт
вт2523:00−7всв4896100 0.8 1026250
02:00−8всв3796100 1.0 1025178
05:00−8всв369692 0.3 1025163
08:00−8всв359699 0.7 1025149
11:00−5в239493 0.1 1024219
14:00−4юв239298 0.2 1023364
17:00−7вюв229892 0.1 102316
20:00−8юв229879 0.3 102328